Location: ????????
(48.4751°N, 37.6926°E)
Time: 13:41:33
(UTC+00:00)

SL-08 RB Rocket - Pass Details

Date: 20 January 2021
Orbit: 647 x 684 km, 97.8° (Epoch: 27 February)

Event Time Altitude Azimuth Distance (km) Brightness Sun altitude
Exits shadow 16:27:10 50° 29° (NNE) 839 3.9 -22.5°
Drops below altitude 10° 16:30:49 10° 354° (N) 2,073 6.3 -23.1°
Sets 16:33:03 0° 350° (N) 2,985 7.1 -23.4°
